Location: Kaiser
(34.0939°N, 117.4889°W)
Time: 03:21:31
(UTC+00:00)

Cosmos 1726 Rocket - Pass Details

Date: 29 October 2020
Orbit: 603 x 629 km, 82.5° (Epoch: 26 November)

Event Time Altitude Azimuth Distance (km) Brightness Sun altitude
Rises 12:58:22 0° 346° (NNW) 2,919 6.8 -14.8°
Reaches altitude 10° 13:00:40 10° 340° (NNW) 2,009 5.9 -14.4°
Maximum altitude 13:04:56 47° 267° (W) 838 3.8 -13.5°
Drops below altitude 10° 13:09:11 10° 194° (SSW) 1,996 6.1 -12.6°
Sets 13:11:27 0° 189° (S) 2,898 7.0 -12.2°
